Tracking 18984 objects as of 23-Feb-2018
HD Live streaming from Space Station
objects crossing your sky now

FENGYUN 1C DEB

Track FENGYUN 1C DEB now!
10-day predictions


NORAD ID: 30921
Int'l Code: 1999-025AZK
Perigee: 830.9 km
Apogee: 862.6 km
Inclination: 99.0 °
Period: 101.7 minutes
Semi major axis: 7217 km
RCS: 0.037 m2 (small)
Launch date: May 10, 1999
Source: People's Republic of China (PRC)
Launch site: Taiyaun Space Center, China (TSC)

Note: This is SATELLITE DEBRIS
aabbcc
Your satellite tracking list
Your tracking list is empty




NASA's NSSDC Master Catalog

Two Line Element Set (TLE):
1 30921U 99025AZK 18054.06151947  .00000588  00000-0  32194-3 0  9994
2 30921  99.0211  80.1752 0021982 274.0665 148.3514 14.15799093563877
Source of the keplerian elements: AFSPC